Flag for U.S.A. Weather past 2 weeks in Fresno, California, U.S.A.

Now
79 °F

Passing clouds.


Feels Like: 79 °F
Forecast: 74 / 102 °F
Wind: 6 mph from Northwest

Location: Fresno Air Terminal

Current Time: Jul 30, 2015 at 3:42:31 AM

Latest Report: Jul 30, 2015 at 2:53 AM


Visibility: 10 mi

Pressure: 29.87 "Hg

Humidity: 41%

Dew point: 53 °F

Location of FresnoLocation

Historic Weather in Fresno — Graph

°F

Fresno temperature yesterday

Maximum temperature yesterday: 107 °F (at 5:53 PM)
Minimum temperature yesterday: 73 °F (at 4:53 AM)
Average temperature yesterday: 90 °F

Past Weeks' High & Low Weather Summary

 TemperatureHumidityPressure
High107 °F (Jul 29, 5:53 PM)82% (Jul 19, 6:53 AM)30.06 "Hg (Jul 19, 6:53 AM)
Low64 °F (Jul 15, 5:53 AM)9% (Jul 18, 2:53 PM)29.66 "Hg (Jul 17, 5:53 PM)
Average83 °F36%29.86 "Hg
* Reported Jul 15 1:53 AM — Jul 30 1:53 AM, Fresno, Weather by CustomWeather, © 2015

Note: Actual official high and low records may vary slightly from our data, if they occured in-between our weather recording intervals... More about our weather records

Advertising

Fresno weather history for previous 24 hours

 ConditionsComfort  
Time TempWeatherWind HumidityBarometerVisibility
1:53 AM
Thu, Jul 30
81 °FPassing clouds.12 mph38%29.87 "Hg10 mi
12:53 AM85 °FPassing clouds.13 mph32%29.86 "Hg9 mi
11:53 PM
Wed, Jul 29
87 °FPassing clouds.12 mph30%29.84 "Hg10 mi
10:53 PM91 °FPassing clouds.9 mph26%29.84 "Hg10 mi
9:53 PM94 °FPassing clouds.9 mph21%29.82 "Hg10 mi
8:53 PM96 °FPassing clouds.7 mph20%29.80 "Hg10 mi
7:53 PM101 °FPassing clouds.9 mph12%29.79 "Hg10 mi
6:53 PM105 °FPassing clouds.7 mph10%29.78 "Hg10 mi
5:53 PM107 °FPassing clouds.8 mph10%29.78 "Hg10 mi
4:53 PM106 °FPassing clouds.7 mph9%29.79 "Hg10 mi
3:53 PM105 °FPassing clouds.6 mph11%29.81 "Hg10 mi
2:53 PM104 °FPassing clouds.6 mph12%29.83 "Hg10 mi
1:53 PM102 °FPassing clouds.6 mph13%29.85 "Hg10 mi
12:53 PM99 °FPassing clouds.6 mph16%29.86 "Hg10 mi
11:53 AM96 °FSunny.5 mph17%29.87 "Hg10 mi
10:53 AM91 °FSunny.8 mph24%29.88 "Hg10 mi
9:53 AM87 °FSunny.5 mph29%29.88 "Hg10 mi
8:53 AM81 °FSunny.3 mph39%29.89 "Hg9 mi
7:53 AM75 °FPassing clouds.5 mph50%29.88 "Hg8 mi
6:53 AM73 °FPassing clouds.3 mph53%29.86 "Hg10 mi
5:53 AM73 °FPassing clouds.3 mph53%29.85 "Hg10 mi
4:53 AM73 °FClear.No wind51%29.83 "Hg10 mi
3:53 AM76 °FClear.No wind43%29.82 "Hg10 mi
Weather by CustomWeather, © 2015

See weather overviewHow to use our weather pages